User: anonymous   Login
Location: Unspecified
(0.0000°N, 0.0000°E)
Time: 00:59:55
(UTC+00:00)
Language:

Transit 2A - Orbit

View from above orbital plane
View from above orbital plane
View from above satellite
View from above satellite

Ground track
Ground track

The orbit data is extracted from the following two-line orbital elements,

1 00045U 60007A   18052.52704307 -.00000066  00000-0  10616-4 0  9997
2 00045  66.6938  92.6037 0259669 213.4989 144.9458 14.33588724  1303
Epoch (UTC): 21 February 2018 12:38:56
Eccentricity: 0.0259669
inclination: 66.6938°
perigee height: 594 km
apogee height: 965 km
right ascension of ascending node: 92.6037°
argument of perigee: 213.4989°
revolutions per day: 14.33588724
mean anomaly at epoch: 144.9458°
orbit number at epoch: 130

The dashed part of the orbit path shows where the satellite is in the earth's shadow,  

DLR